Terminal Aerodrome Forecast
Issued by NWS

Home | Current Version | Previous Version | Text Only | Print | Product List | Glossary On
Versions: 1 2 3 4 5 6 7 8 9 10 11 12 13 14 15
000
FTUS43 KAPX 261100
TAFAPN
TAF
KAPN 261122Z 2612/2712 VRB03KT P6SM VCSH OVC029
     FM261400 22007KT P6SM -SHRA OVC030
     FM262000 07008KT P6SM OVC035
     FM270100 VRB03KT P6SM BKN035
     FM270700 00000KT 1 1/2SM BR BKN005=

USA.gov is the U.S. government's official web portal to all federal, state and local government web resources and services.